TimeMST,TemperatureF,Dew PointF,Humidity,Sea Level PressureIn,VisibilityMPH,Wind Direction,Wind SpeedMPH,Gust SpeedMPH,PrecipitationIn,Events,Conditions,WindDirDegrees,DateUTC
12:53 AM,39.9,26.1,58,29.82,10.0,West,8.1,-,N/A,,Partly Cloudy,280,2013-11-05 07:53:00
1:53 AM,39.0,28.0,65,29.84,10.0,WNW,4.6,-,N/A,,Overcast,300,2013-11-05 08:53:00
2:53 AM,39.0,28.0,65,29.85,10.0,WNW,9.2,-,N/A,,Scattered Clouds,290,2013-11-05 09:53:00
3:53 AM,37.9,28.9,70,29.88,10.0,WNW,6.9,-,N/A,,Scattered Clouds,300,2013-11-05 10:53:00
4:53 AM,37.9,28.9,70,29.92,10.0,West,6.9,-,N/A,,Scattered Clouds,280,2013-11-05 11:53:00
5:53 AM,36.0,28.9,76,29.95,10.0,WSW,4.6,-,N/A,,Partly Cloudy,250,2013-11-05 12:53:00
6:53 AM,35.1,28.0,76,29.98,10.0,West,5.8,-,N/A,,Clear,280,2013-11-05 13:53:00
7:53 AM,37.0,28.0,70,30.01,10.0,WNW,5.8,-,N/A,,Clear,290,2013-11-05 14:53:00
8:53 AM,39.9,28.0,63,30.04,10.0,NW,3.5,-,N/A,,Clear,310,2013-11-05 15:53:00
9:53 AM,44.1,28.0,53,30.04,10.0,WNW,4.6,-,N/A,,Clear,300,2013-11-05 16:53:00
10:53 AM,48.9,28.0,44,30.03,10.0,Variable,3.5,-,N/A,,Partly Cloudy,0,2013-11-05 17:53:00
11:53 AM,53.1,28.0,38,30.02,10.0,North,5.8,-,N/A,,Clear,360,2013-11-05 18:53:00
12:53 PM,55.0,26.1,33,30.01,10.0,North,5.8,-,N/A,,Partly Cloudy,350,2013-11-05 19:53:00
1:53 PM,55.9,21.9,27,30.00,10.0,NE,3.5,-,N/A,,Partly Cloudy,40,2013-11-05 20:53:00
2:53 PM,57.9,21.0,24,30.01,10.0,North,6.9,-,N/A,,Partly Cloudy,360,2013-11-05 21:53:00
3:53 PM,57.0,14.0,18,30.02,10.0,NW,11.5,-,N/A,,Clear,320,2013-11-05 22:53:00
4:53 PM,54.0,9.0,17,30.06,10.0,NNW,8.1,-,N/A,,Clear,340,2013-11-05 23:53:00
5:53 PM,46.0,10.0,23,30.10,10.0,NW,5.8,-,N/A,,Clear,320,2013-11-06 00:53:00
6:53 PM,44.1,12.0,27,30.13,8.0,WNW,5.8,-,N/A,,Clear,300,2013-11-06 01:53:00
7:53 PM,41.0,10.0,28,30.16,10.0,WNW,4.6,-,N/A,,Clear,290,2013-11-06 02:53:00
8:53 PM,41.0,10.0,28,30.17,6.0,West,8.1,-,N/A,,Haze,270,2013-11-06 03:53:00
9:53 PM,39.0,10.0,30,30.18,5.0,West,6.9,-,N/A,,Haze,280,2013-11-06 04:53:00
10:53 PM,35.1,14.0,42,30.20,10.0,SW,3.5,-,N/A,,Clear,220,2013-11-06 05:53:00
11:53 PM,33.1,12.9,43,30.20,10.0,South,4.6,-,N/A,,Clear,190,2013-11-06 06:53:00